Corlu, Turkey

10:57 AM EET on February 12, 2016 (GMT +0200)
Corlu Air Base

Weather History for LTBU - November, 2013

Change the Weather History Date:

Sunday, November 24, 2013

  Actual Average (LTBA) Record (LTBA)
Temperature  
Mean Temperature 55 °F -  
Max Temperature 62 °F 55 °F 68 °F (2006)
Min Temperature 48 °F 45 °F 35 °F (2001)
Degree Days  
Heating Degree Days 10    
Growing Degree Days 5 (Base 50)    
Moisture  
Dew Point 52 °F    
Average Humidity 85    
Maximum Humidity 100    
Minimum Humidity 68    
Precipitation  
Precipitation 0.00 in - - ()
Sea Level Pressure  
Sea Level Pressure 29.81 in    
Wind  
Wind Speed 6 mph ()    
Max Wind Speed 14 mph    
Max Gust Speed -    
Visibility 5.4 miles    
Events      
Averages and records for this station are not official NWS values.
T = Trace of Precipitation, MM = Missing Value Source: Averaged Metar Reports

Daily Weather History Graph

Daily Weather History Graph

Search for Another Location

Airport or City:

Trip Planner

Search our weather history database for the weather conditions in past years. The results will help you decide how hot, cold, wet, or windy it might be!

Date:

Astronomy

Nov. 24, 2013 Rise Set
Actual Time 7:06 AM EET 4:43 PM EET
Civil Twilight 6:36 AM EET 5:13 PM EET
Nautical Twilight 6:02 AM EET 5:47 PM EET
Astronomical Twilight 5:29 AM EET 6:20 PM EET
Moon 10:51 PM EET (11/24) 11:43 AM EET (11/24)
Length of Visible Light 10h 37m
Length of Day
9h 36m
Waning Gibbous, 63% of the Moon is Illuminated
Nov 24
Waning Gibbous
Nov 25
Last Quarter
Dec 3
New
Dec 9
First Quarter
Dec 17
Full

Hourly Weather History & Observations

Time (EET) Temp. Dew Point Humidity Pressure Visibility Wind Dir Wind Speed Gust Speed Precip Events Conditions
12:20 AM 51.8 °F 48.2 °F 88% 29.83 in - East 5.8 mph - N/A   Clear
12:50 AM 48.2 °F 46.4 °F 93% 29.83 in - ENE 4.6 mph - N/A   Clear
1:20 AM 50.0 °F 48.2 °F 94% 29.83 in 5.0 mi Variable 2.3 mph - N/A   Unknown
1:50 AM 51.8 °F 51.8 °F 100% 29.83 in 3.7 mi ESE 4.6 mph - N/A   Unknown
2:20 AM 50.0 °F 48.2 °F 94% 29.83 in 3.7 mi Variable 2.3 mph - N/A   Unknown
2:50 AM 50.0 °F 50.0 °F 100% 29.83 in 3.7 mi SE 3.5 mph - N/A   Unknown
3:20 AM 50.0 °F 50.0 °F 100% 29.83 in 3.7 mi ESE 3.5 mph - N/A   Unknown
3:50 AM 50.0 °F 48.2 °F 94% 29.83 in 4.3 mi ENE 4.6 mph - N/A   Unknown
4:20 AM 51.8 °F 51.8 °F 100% 29.83 in 4.3 mi East 3.5 mph - N/A   Scattered Clouds
4:50 AM 51.8 °F 50.0 °F 94% 29.83 in 3.7 mi East 4.6 mph - N/A   Scattered Clouds
5:20 AM 51.8 °F 51.8 °F 100% 29.83 in 4.3 mi ESE 4.6 mph - N/A   Mostly Cloudy
5:50 AM 51.8 °F 51.8 °F 100% 29.83 in 4.3 mi ESE 4.6 mph - N/A   Scattered Clouds
6:20 AM 53.6 °F 51.8 °F 94% 29.83 in 3.7 mi SE 6.9 mph - N/A   Mostly Cloudy
6:50 AM 51.8 °F 51.8 °F 100% 29.83 in 3.7 mi ESE 6.9 mph - N/A   Mostly Cloudy
7:11 AM 53.6 °F 53.6 °F 100% 29.86 in - SE 6.9 mph - N/A   Mostly Cloudy
7:20 AM 55.4 °F 53.6 °F 94% 29.86 in 3.1 mi SE 5.8 mph - N/A   Mostly Cloudy
7:50 AM 51.8 °F 51.8 °F 100% 29.86 in 3.1 mi ESE 4.6 mph - N/A   Mostly Cloudy
8:20 AM 55.4 °F 53.6 °F 94% 29.86 in 3.7 mi SE 4.6 mph - N/A   Mostly Cloudy
8:50 AM 57.2 °F 55.4 °F 94% 29.86 in 5.6 mi SSE 3.5 mph - N/A   Mostly Cloudy
9:20 AM 57.2 °F 55.4 °F 94% 29.86 in 5.0 mi SE 6.9 mph - N/A   Scattered Clouds
9:50 AM 59.0 °F 55.4 °F 88% 29.86 in 6.2 mi SSE 8.1 mph - N/A   Mostly Cloudy
10:20 AM 60.8 °F 55.4 °F 82% 29.86 in 6.2 mi SSE 8.1 mph - N/A   Mostly Cloudy
10:50 AM 60.8 °F 53.6 °F 77% 29.86 in 6.2 mi SE 6.9 mph - N/A   Mostly Cloudy
11:20 AM 60.8 °F 55.4 °F 82% 29.86 in 6.2 mi ESE 6.9 mph - N/A   Mostly Cloudy
11:50 AM 60.8 °F 53.6 °F 77% 29.83 in 6.2 mi SSE 8.1 mph - N/A   Mostly Cloudy
12:20 PM 60.8 °F 53.6 °F 77% 29.83 in 6.2 mi SE 6.9 mph - N/A   Mostly Cloudy
12:50 PM 62.6 °F 53.6 °F 72% 29.83 in 6.2 mi Variable 5.8 mph - N/A   Mostly Cloudy
1:20 PM 62.6 °F 53.6 °F 72% 29.80 in 6.2 mi SE 8.1 mph - N/A   Mostly Cloudy
1:50 PM 60.8 °F 53.6 °F 77% 29.80 in 6.2 mi SE 6.9 mph - N/A   Mostly Cloudy
2:20 PM 60.8 °F 51.8 °F 72% 29.80 in 6.2 mi ESE 9.2 mph - N/A   Mostly Cloudy
2:50 PM 62.6 °F 51.8 °F 68% 29.80 in 6.2 mi SE 9.2 mph - N/A   Mostly Cloudy
3:20 PM 60.8 °F 53.6 °F 77% 29.80 in 6.2 mi ESE 8.1 mph - N/A   Mostly Cloudy
3:50 PM 60.8 °F 51.8 °F 72% 29.77 in 6.2 mi ESE 8.1 mph - N/A   Scattered Clouds
4:20 PM 59.0 °F 53.6 °F 82% 29.77 in 6.2 mi East 6.9 mph - N/A   Mostly Cloudy
4:50 PM 57.2 °F 51.8 °F 82% 29.77 in - ESE 8.1 mph - N/A   Clear
5:20 PM 57.2 °F 51.8 °F 82% 29.77 in 6.2 mi SE 5.8 mph - N/A   Mostly Cloudy
5:50 PM 57.2 °F 51.8 °F 82% 29.77 in 6.2 mi SE 11.5 mph - N/A   Mostly Cloudy
6:20 PM 57.2 °F 51.8 °F 82% 29.77 in 6.2 mi SE 10.4 mph - N/A   Mostly Cloudy
6:50 PM 57.2 °F 51.8 °F 82% 29.77 in 6.2 mi SE 8.1 mph - N/A   Mostly Cloudy
7:20 PM 59.0 °F 51.8 °F 77% 29.77 in 6.2 mi SE 8.1 mph - N/A   Mostly Cloudy
7:50 PM 59.0 °F 51.8 °F 77% 29.77 in 6.2 mi SSE 8.1 mph - N/A   Mostly Cloudy
8:20 PM 59.0 °F 50.0 °F 72% 29.74 in 6.2 mi SSE 9.2 mph - N/A   Mostly Cloudy
8:50 PM 59.0 °F 50.0 °F 72% 29.74 in 6.2 mi SSE 8.1 mph - N/A   Mostly Cloudy
9:20 PM 59.0 °F 50.0 °F 72% 29.74 in 6.2 mi SSE 8.1 mph - N/A   Mostly Cloudy
9:50 PM 59.0 °F 50.0 °F 72% 29.74 in 6.2 mi South 9.2 mph - N/A   Mostly Cloudy
10:20 PM 59.0 °F 50.0 °F 72% 29.71 in 6.2 mi South 10.4 mph - N/A   Mostly Cloudy
10:50 PM 60.8 °F 50.0 °F 68% 29.71 in 6.2 mi South 12.7 mph - N/A   Mostly Cloudy
11:20 PM 59.0 °F 51.8 °F 77% 29.74 in 6.2 mi South 11.5 mph - N/A   Mostly Cloudy
11:50 PM 59.0 °F 51.8 °F 77% 29.74 in 6.2 mi South 13.8 mph - N/A   Mostly Cloudy